Location: Unspecified
(0.0000°N, 0.0000°E)
Time: 23:26:08
(UTC+00:00)

Hubble Space Telescope - Pass Details

Date: 18 February 2020
Orbit: 536 x 540 km, 28.5° (Epoch: 26 February)

Event Time Altitude Azimuth Distance (km) Brightness Sun altitude
Exits shadow 05:37:22 10° 264° (W) 1,760 2.8 -9.0°
Maximum altitude 05:40:41 24° 209° (SSW) 1,122 2.2 -8.1°
Drops below altitude 10° 05:44:04 10° 154° (SSE) 1,780 4.0 -7.3°
Sets 05:46:38 0° 140° (SE) 2,671 5.3 -6.7°
